軌道要素
Epoch 2018 June 11.0 TT = JDT 2458280.5
T 2018 June 2.97161 TT Rudenko
q 5.9895743 (2000.0) P Q
z -0.0006424 Peri. 92.66069 +0.60571789 +0.77903557
+/-0.0000009 Node 216.26267 -0.79432646 +0.58017857
e 1.0038476 Incl. 15.88486 -0.04638225 +0.23768973
From 283 observations 2016 Mar. 6-2019 Dec. 2, mean residual 0".5.
|